This demonstration page uses our WeatherBlox Daily Observations layout. Learn more.

Left ArrowRight Arrow

Hourly Observations for September 13, 2019

Temp ( °F °C ) Dew Point ( °F °C ) Humidity (%) Winds ( mph kmh ) Pressure ( in mb ) Visibility ( mi km ) Precip ( " mm )
12:56 am 00:56 Cloudy with Thunderstorms 81 27 73 23 79 79 NNE 26 43 30.13 1020 8 13 0.00 0.00
12:59 am 00:59 Windy with Storms Likely 78 25.6 72 22.2 82 82 NNE 28 44 30.13 1020 3 4 0.00 0.00
1:10 am 01:10 Cloudy with Thunderstorms 73 22.8 71 21.7 94 94 ENE 29 46 30.13 1020 1 2 0.08 2.03
1:39 am 01:39 Cloudy with Thunderstorms 72 22.2 72 22.2 100 100 E 14 22 30.15 1021 2 3 0.08 2.03
1:48 am 01:48 Cloudy with Thunderstorms 73 22.8 73 22.8 100 100 E 12 19 30.13 1020 3 5 0.08 2.03
1:59 am 01:59 Cloudy with Thunderstorms 73 22.8 73 22.8 100 100 ENE 7 11 30.15 1021 7 11 0.08 2.03
2:59 am 02:59 Cloudy with Thunderstorms 73 22.8 73 22.8 100 100 E 3 6 30.15 1021 7 11 0.00 0.00
3:17 am 03:17 Mostly Cloudy with Light Rain 74 23.3 73 22.8 97 97 NE 5 7 30.16 1021 7 11 0.00 0.00
3:59 am 03:59 Cloudy 75 23.9 74 23.3 96 96 ENE 8 13 30.16 1021 7 11 0.11 2.79
4:16 am 04:16 Cloudy 75 23.9 74 23.3 96 96 ENE 13 20 30.17 1022 8 13 0.00 0.00
4:59 am 04:59 Cloudy 75 23.9 74 23.3 96 96 E 10 17 30.18 1022 8 13 0.00 0.00
5:59 am 05:59 Cloudy 75 23.9 73 22.8 94 94 ENE 15 24 30.19 1023 9 14 0.00 0.00
6:29 am 06:29 Cloudy 75 23.9 73 22.8 94 94 ENE 17 28 30.20 1023 9 14 0.00 0.00
6:59 am 06:59 Cloudy 74 23.3 72 22.2 94 94 ENE 16 26 30.21 1023 9 14 0.00 0.00
7:30 am 07:30 Cloudy 74 23.3 71 21.7 91 91 ENE 17 28 30.23 1024 8 13 0.00 0.00
7:59 am 07:59 Cloudy 74 23.3 71 21.7 91 91 ENE 17 28 30.24 1024 9 14 0.00 0.00
8:56 am 08:56 Cloudy 73 23 70 21 89 89 E 20 31 30.26 1025 10 16 0.00 0.00
8:59 am 08:59 Cloudy 74 23.3 70 21.1 88 88 ENE 20 31 30.26 1025 10 16 0.00 0.00
9:59 am 09:59 Cloudy 74 23.3 70 21.1 88 88 ENE 14 22 30.28 1026 10 16 0.00 0.00
10:59 am 10:59 Cloudy 73 22.8 68 20 84 84 ENE 18 30 30.30 1026 9 14 0.00 0.00
11:59 am 11:59 Cloudy 74 23.3 68 20 82 82 ENE 14 22 30.31 1026 9 14 0.00 0.00
12:59 pm 12:59 Cloudy 74 23.3 67 19.4 79 79 ENE 18 30 30.32 1027 10 16 0.00 0.00
1:59 pm 13:59 Cloudy 73 22.8 67 19.4 81 81 ENE 18 30 30.33 1027 10 16 0.00 0.00
2:59 pm 14:59 Cloudy 75 23.9 66 18.9 74 74 ENE 17 28 30.32 1027 10 16 0.00 0.00
3:59 pm 15:59 Cloudy 75 23.9 66 18.9 74 74 E 15 24 30.31 1027 10 16 0.00 0.00
4:59 pm 16:59 Mostly Cloudy 74 23.3 66 18.9 76 76 E 16 26 30.31 1027 10 16 0.00 0.00
5:59 pm 17:59 Mostly Cloudy 74 23.3 67 19.4 79 79 ENE 15 24 30.31 1027 10 16 0.00 0.00
6:59 pm 18:59 Cloudy 73 22.8 66 18.9 79 79 ENE 13 20 30.32 1027 10 16 0.00 0.00
7:59 pm 19:59 Cloudy 73 22.8 65 18.3 76 76 E 15 24 30.32 1027 10 16 0.00 0.00
8:59 pm 20:59 Cloudy 73 22.8 65 18.3 76 76 ENE 14 22 30.33 1027 10 16 0.00 0.00
9:59 pm 21:59 Cloudy 73 22.8 65 18.3 76 76 E 14 22 30.33 1027 10 16 0.00 0.00
10:27 pm 22:27 Cloudy 72 22.2 64 17.8 76 76 E 14 22 30.33 1027 10 16 0.00 0.00
10:59 pm 22:59 Cloudy 72 22.2 64 17.8 76 76 E 13 20 30.33 1027 10 16 0.00 0.00
11:59 pm 23:59 Cloudy 72 22.2 65 18.3 79 79 E 8 13 30.32 1027 10 16 0.00 0.00

Powered by AerisWeather